Location: Ellerstadt
(49.4644°N, 8.2615°E)
Time: 19:40:05
(UTC+00:00)

Vanguard 1 - Pass Details

Date: 21 June 2021
Orbit: 651 x 3832 km, 34.2° (Epoch: 27 July)

Event Time Altitude Azimuth Distance (km) Brightness Sun altitude
Rises 22:28:52 0° 255° (WSW) 7,970 14.7 -15.9°
Reaches altitude 10° 22:34:48 10° 251° (WSW) 6,853 14.3 -16.1°
Maximum altitude 22:54:44 47° 187° (S) 3,571 12.4 -16.7°
Drops below altitude 10° 23:07:21 10° 119° (ESE) 4,486 13.1 -16.9°
Sets 23:10:18 0° 113° (ESE) 5,132 13.5 -17.0°
